CW0133 Weather Reports


time (UTC)temp
C
wind
direction
speed
KPH
gust
KPH
rain 1hr
cm
rain 24hr
cm
rain mn
cm
humidity
%
barometer
mb
20260507230524 21 13 6.4 12.9 0.00 0.00 0.00 62 1016.8
20260507230024 21 14 8.0 16.1 0.00 0.00 0.00 61 1017.1
20260507225503 21 17 8.0 17.7 0.00 0.00 0.00 61 1017.0
20260507225003 21 12 8.0 17.7 0.00 0.00 0.00 63 1017.2
20260507224504 20 8 8.0 16.1 0.00 0.00 0.00 64 1017.1
20260507224004 20 4 6.4 11.3 0.00 0.00 0.00 64 1017.4
20260507223503 20 20 6.4 16.1 0.00 0.00 0.00 64 1017.3
20260507223003 20 42 6.4 16.1 0.00 0.00 0.00 64 1017.3
20260507222503 20 16 6.4 12.9 0.00 0.00 0.00 62 1017.4
20260507222003 20 10 8.0 16.1 0.00 0.00 0.00 63 1017.6
20260507221524 20 15 6.4 17.7 0.00 0.00 0.00 63 1017.5
20260507221003 20 360 8.0 17.7 0.00 0.00 0.00 63 1017.6
20260507220524 20 349 9.7 17.7 0.00 0.00 0.00 63 1017.7
20260507220003 20 354 8.0 17.7 0.00 0.00 0.00 63 1017.5
20260507215524 20 356 8.0 12.9 0.00 0.00 0.00 64 1017.6
20260507215003 20 5 8.0 16.1 0.00 0.00 0.00 64 1017.5
20260507214503 20 16 8.0 16.1 0.00 0.00 0.00 63 1017.5
20260507214003 20 20 8.0 17.7 0.00 0.00 0.00 64 1017.5
20260507213503 20 8 9.7 19.3 0.00 0.00 0.00 63 1017.6
20260507213003 20 2 11.3 19.3 0.00 0.00 0.00 64 1017.5
20260507212503 20 12 9.7 19.3 0.00 0.00 0.00 63 1017.5
20260507212003 20 11 8.0 17.7 0.00 0.00 0.00 63 1017.4
20260507211503 20 19 9.7 19.3 0.00 0.00 0.00 63 1017.4
20260507211003 20 11 11.3 20.9 0.00 0.00 0.00 63 1017.7
20260507210503 20 4 12.9 27.4 0.00 0.00 0.00 63 1017.7
20260507210003 20 13 12.9 27.4 0.00 0.00 0.00 64 1017.7
20260507205503 20 8 12.9 27.4 0.00 0.00 0.00 63 1017.4
20260507205003 20 356 17.7 30.6 0.00 0.00 0.00 63 1017.3
20260507204503 20 350 16.1 30.6 0.00 0.00 0.00 63 1017.1
20260507204003 20 352 16.1 30.6 0.00 0.00 0.00 64 1017.3
20260507203503 20 350 12.9 29.0 0.00 0.00 0.00 65 1017.3
20260507203004 20 346 12.9 27.4 0.00 0.00 0.00 65 1017.4
20260507202504 20 356 12.9 27.4 0.00 0.00 0.00 64 1017.9
20260507202004 20 10 11.3 27.4 0.00 0.00 0.00 64 1017.9
20260507201504 20 11 12.9 38.6 0.00 0.00 0.00 64 1018.0
20260507201004 20 360 12.9 38.6 0.00 0.00 0.00 62 1018.1
20260507200504 20 358 11.3 29.0 0.00 0.00 0.00 65 1018.2
20260507200025 20 3 12.9 29.0 0.00 0.00 0.00 65 1017.9
20260507195504 20 4 12.9 30.6 0.00 0.00 0.00 66 1017.9
20260507195003 20 6 16.1 30.6 0.00 0.00 0.00 67 1018.0
20260507194504 20 358 16.1 37.0 0.00 0.00 0.00 67 1017.8
20260507194004 20 357 11.3 37.0 0.00 0.00 0.00 70 1018.2
20260507193504 19 3 9.7 20.9 0.00 0.00 0.00 71 1018.3
20260507193025 19 353 12.9 20.9 0.00 0.00 0.00 70 1018.2
20260507192504 19 354 12.9 22.5 0.00 0.00 0.00 71 1018.6
20260507192004 19 12 9.7 22.5 0.00 0.00 0.00 73 1018.3
20260507191504 18 17 8.0 17.7 0.00 0.00 0.00 74 1018.3
20260507191004 18 14 9.7 16.1 0.00 0.00 0.00 72 1018.6
20260507190504 18 12 8.0 16.1 0.00 0.00 0.00 71 1018.7
20260507190005 19 13 8.0 16.1 0.00 0.00 0.00 69 1018.8
20260507185504 19 14 8.0 19.3 0.00 0.00 0.00 69 1018.8
20260507185004 19 3 8.0 19.3 0.00 0.00 0.00 69 1018.9
20260507184504 19 4 9.7 20.9 0.00 0.00 0.00 69 1018.9
20260507184004 19 3 11.3 22.5 0.00 0.00 0.00 69 1019.1
20260507183504 19 359 9.7 25.7 0.00 0.00 0.00 70 1019.1
20260507183004 19 9 8.0 25.7 0.00 0.00 0.00 72 1019.2
20260507182504 18 6 9.7 19.3 0.00 0.00 0.00 72 1019.4
20260507182004 18 5 9.7 19.3 0.00 0.00 0.00 72 1019.3
20260507181504 18 8 9.7 19.3 0.00 0.00 0.00 72 1019.3
20260507181004 18 4 9.7 19.3 0.00 0.00 0.00 72 1019.4
20260507180504 18 16 9.7 19.3 0.00 0.00 0.00 73 1019.2
20260507180004 18 22 9.7 19.3 0.00 0.00 0.00 73 1018.9
20260507175504 17 9 11.3 25.7 0.00 0.00 0.00 74 1018.7
20260507175004 17 357 12.9 25.7 0.00 0.00 0.00 74 1018.8
20260507174525 17 1 11.3 22.5 0.00 0.00 0.00 75 1018.9
20260507174024 17 21 11.3 22.5 0.00 0.00 0.00 76 1019.1
20260507173504 17 25 11.3 22.5 0.00 0.00 0.00 77 1018.8
20260507173004 17 26 9.7 20.9 0.00 0.00 0.00 77 1018.7
20260507172504 17 11 11.3 20.9 0.00 0.00 0.00 78 1018.9
20260507172025 16 19 11.3 22.5 0.00 0.00 0.00 78 1018.8
20260507171504 16 36 11.3 22.5 0.00 0.00 0.00 78 1018.9
20260507171025 16 34 9.7 22.5 0.00 0.00 0.00 79 1019.2
20260507170504 16 19 8.0 22.5 0.00 0.00 0.00 80 1019.4
20260507170004 16 356 8.0 20.9 0.00 0.00 0.00 79 1019.7
20260507165504 16 359 8.0 17.7 0.00 0.00 0.00 80 1019.7
20260507165004 16 19 9.7 22.5 0.00 0.00 0.00 81 1019.9
20260507164525 16 21 9.7 22.5 0.00 0.00 0.00 81 1019.7
20260507164003 16 4 11.3 27.4 0.00 0.00 0.00 81 1019.4
20260507163504 16 354 11.3 27.4 0.00 0.00 0.00 82 1019.7
20260507163003 16 343 12.9 29.0 0.00 0.00 0.00 82 1020.1
20260507162504 16 346 12.9 29.0 0.00 0.00 0.00 82 1019.8
20260507162004 16 350 12.9 30.6 0.00 0.00 0.00 83 1019.9
20260507161503 16 345 12.9 30.6 0.00 0.00 0.00 83 1019.5
20260507161004 16 337 12.9 30.6 0.00 0.00 0.00 83 1020.0
20260507160503 16 342 16.1 41.8 0.00 0.00 0.00 83 1020.2
20260507160004 16 358 12.9 41.8 0.00 0.00 0.00 83 1019.5
20260507155504 16 5 11.3 27.4 0.00 0.00 0.00 83 1019.1
20260507155003 16 353 9.7 22.5 0.00 0.00 0.00 83 1019.6
20260507154504 16 348 12.9 29.0 0.00 0.00 0.00 84 1019.9
20260507154004 16 351 12.9 29.0 0.00 0.00 0.00 84 1019.7
20260507153504 16 355 11.3 29.0 0.00 0.00 0.00 84 1019.6
20260507153003 16 355 12.9 32.2 0.00 0.00 0.00 84 1019.9
20260507152504 16 357 16.1 32.2 0.00 0.00 0.00 84 1020.1
20260507152003 16 354 12.9 29.0 0.00 0.00 0.00 84 1020.1
20260507151504 16 350 11.3 25.7 0.00 0.00 0.00 84 1020.1
20260507151004 16 349 11.3 35.4 0.00 0.00 0.00 84 1020.0
20260507150504 16 345 12.9 35.4 0.00 0.00 0.00 84 1020.0
20260507150004 16 345 12.9 22.5 0.00 0.00 0.00 85 1019.9
20260507145503 16 343 11.3 35.4 0.00 0.00 0.00 85 1020.0
20260507145004 16 339 12.9 35.4 0.00 0.00 0.00 85 1020.0
20260507144503 15 334 11.3 30.6 0.00 0.00 0.00 85 1019.8
20260507144003 15 332 11.3 30.6 0.00 0.00 0.00 85 1019.6
20260507143503 15 335 12.9 30.6 0.00 0.00 0.00 85 1019.7
20260507143003 15 336 16.1 30.6 0.00 0.00 0.00 85 1019.6
20260507142504 15 338 12.9 25.7 0.00 0.00 0.00 86 1019.8
20260507142004 15 337 11.3 22.5 0.00 0.00 0.00 86 1019.8
20260507141503 15 335 8.0 20.9 0.00 0.00 0.00 86 1019.9
20260507141003 15 336 9.7 22.5 0.00 0.00 0.00 86 1020.2
20260507140503 15 342 11.3 22.5 0.00 0.00 0.00 86 1020.1
20260507140025 15 344 11.3 22.5 0.00 0.00 0.00 86 1019.3
20260507135504 15 341 9.7 19.3 0.00 0.00 0.00 86 1019.4
20260507135003 15 344 9.7 19.3 0.00 0.00 0.00 86 1019.6
20260507134503 15 348 9.7 19.3 0.00 0.00 0.00 86 1019.7
20260507134003 15 349 9.7 20.9 0.00 0.00 0.00 86 1019.5
20260507133503 15 354 9.7 20.9 0.00 0.00 0.00 86 1019.4
20260507133004 15 355 9.7 22.5 0.00 0.00 0.00 86 1019.2
20260507132504 15 350 11.3 22.5 0.00 0.00 0.00 86 1019.2
20260507132003 15 344 9.7 20.9 0.00 0.00 0.00 86 1019.1
20260507131503 15 346 9.7 20.9 0.00 0.00 0.00 86 1018.9
20260507131003 15 349 12.9 25.7 0.00 0.00 0.00 86 1018.6
20260507130503 15 344 12.9 27.4 0.00 0.00 0.00 86 1018.6
20260507130004 15 342 11.3 27.4 0.00 0.00 0.00 86 1018.8
20260507125503 15 346 9.7 22.5 0.00 0.00 0.00 86 1018.8
20260507125003 15 341 9.7 20.9 0.00 0.00 0.00 86 1019.1
20260507124503 15 342 12.9 30.6 0.00 0.00 0.00 86 1018.9
20260507124003 15 344 16.1 30.6 0.00 0.00 0.00 86 1018.7
20260507123503 15 342 12.9 29.0 0.00 0.00 0.00 86 1018.7
20260507123004 15 340 11.3 25.7 0.00 0.00 0.00 86 1018.8
20260507122503 15 343 12.9 37.0 0.00 0.00 0.00 86 1018.8
20260507122003 15 344 16.1 37.0 0.00 0.00 0.00 86 1018.6
20260507121504 15 340 12.9 37.0 0.00 0.00 0.00 86 1018.6
20260507121003 15 338 11.3 25.7 0.00 0.00 0.00 86 1018.6
20260507120503 15 345 11.3 22.5 0.00 0.00 0.00 86 1018.5
20260507120004 15 351 12.9 29.0 0.00 0.00 0.00 86 1018.1
20260507115503 15 342 11.3 29.0 0.00 0.00 0.00 86 1018.1
20260507115003 15 335 11.3 29.0 0.00 0.00 0.00 86 1018.0
20260507114504 15 341 11.3 20.9 0.00 0.00 0.00 85 1018.0
20260507114003 15 344 12.9 25.7 0.00 0.00 0.00 85 1017.9
20260507113503 15 345 16.1 29.0 0.00 0.00 0.00 85 1017.8
20260507113024 15 351 16.1 30.6 0.00 0.00 0.00 85 1017.8
20260507112503 15 357 12.9 30.6 0.00 0.00 0.00 85 1018.2
20260507112003 15 357 11.3 22.5 0.00 0.00 0.00 85 1018.2
20260507111504 15 353 11.3 27.4 0.00 0.00 0.00 85 1018.0
20260507111003 15 348 11.3 27.4 0.00 0.00 0.00 85 1017.9
20260507110525 16 349 11.3 27.4 0.00 0.00 0.00 85 1018.1
20260507110003 16 338 11.3 27.4 0.00 0.00 0.00 85 1018.0
20260507105503 16 335 9.7 22.5 0.00 0.00 0.00 85 1017.9
20260507105024 16 348 9.7 25.7 0.00 0.00 0.00 85 1017.8
20260507104524 16 348 12.9 32.2 0.00 0.00 0.00 85 1017.8
20260507104003 16 346 12.9 32.2 0.00 0.00 0.00 85 1017.9
20260507103503 16 345 12.9 29.0 0.00 0.00 0.00 84 1017.6
20260507103003 16 346 12.9 29.0 0.00 0.00 0.00 84 1017.5
20260507102503 16 353 11.3 25.7 0.00 0.00 0.00 84 1017.6
20260507102024 16 352 12.9 22.5 0.00 0.00 0.00 84 1017.3
20260507101503 16 344 16.1 25.7 0.00 0.00 0.00 84 1017.2
20260507101024 16 344 12.9 25.7 0.00 0.00 0.00 83 1017.3
20260507100503 16 345 9.7 22.5 0.00 0.00 0.00 83 1017.4
20260507100003 16 335 9.7 22.5 0.00 0.00 0.00 83 1017.2
20260507095503 16 336 11.3 22.5 0.00 0.00 0.00 83 1017.4
20260507095003 16 345 9.7 22.5 0.00 0.00 0.00 83 1017.1
20260507094503 16 345 8.0 22.5 0.00 0.00 0.00 83 1017.0
20260507094003 16 341 8.0 16.1 0.00 0.00 0.00 82 1017.5
20260507093525 16 337 8.0 25.7 0.00 0.00 0.00 82 1017.3
20260507093024 16 336 9.7 25.7 0.00 0.00 0.00 83 1017.1
20260507092503 16 342 11.3 22.5 0.00 0.00 0.00 82 1017.1
20260507092024 16 345 11.3 22.5 0.00 0.00 0.00 82 1016.8
20260507091503 16 345 8.0 20.9 0.00 0.00 0.00 82 1016.8
20260507091003 16 343 9.7 19.3 0.00 0.00 0.00 82 1017.0
20260507090503 16 338 9.7 19.3 0.00 0.00 0.00 82 1017.0
20260507090024 16 338 8.0 16.1 0.00 0.00 0.00 82 1016.8
20260507085503 16 345 8.0 16.1 0.00 0.00 0.00 82 1016.8
20260507085024 16 348 8.0 16.1 0.00 0.00 0.00 82 1016.8
20260507084503 16 351 8.0 17.7 0.00 0.00 0.00 82 1016.8
20260507084024 16 357 8.0 17.7 0.00 0.00 0.00 82 1016.7
20260507083503 16 2 8.0 16.1 0.00 0.00 0.00 81 1016.5
20260507083004 16 356 6.4 19.3 0.00 0.00 0.00 81 1016.7
20260507082504 16 345 6.4 19.3 0.00 0.00 0.00 81 1016.9
20260507082004 16 3 3.2 16.1 0.00 0.00 0.00 81 1016.9
20260507081504 16 50 1.6 11.3 0.00 0.00 0.00 81 1017.0
20260507081004 16 52 1.6 11.3 0.00 0.00 0.00 81 1016.7
20260507080504 16 20 3.2 11.3 0.00 0.00 0.00 81 1016.5
20260507080004 16 6 3.2 16.1 0.00 0.00 0.00 81 1016.4
20260507075504 16 10 6.4 16.1 0.00 0.00 0.00 81 1016.5
20260507075004 16 20 8.0 17.7 0.00 0.00 0.00 81 1016.3
20260507074504 16 21 9.7 22.5 0.00 0.00 0.00 80 1016.6
20260507074025 16 19 9.7 22.5 0.00 0.00 0.00 80 1016.4
20260507073504 16 23 9.7 20.9 0.00 0.00 0.00 80 1016.2
20260507073004 16 18 9.7 20.9 0.00 0.00 0.00 80 1016.4
20260507072504 16 6 8.0 17.7 0.00 0.00 0.00 80 1016.4
20260507072025 16 1 9.7 20.9 0.00 0.00 0.00 80 1016.5
20260507071504 16 359 9.7 20.9 0.00 0.00 0.00 80 1016.6
20260507071004 16 5 8.0 12.9 0.00 0.00 0.00 80 1016.3
20260507070504 16 14 6.4 12.9 0.00 0.00 0.00 80 1016.3
20260507070008 17 13 6.4 11.3 0.00 0.00 0.00 80 1016.3
20260507065525 17 6 6.4 12.9 0.00 0.00 0.00 80 1016.4
20260507065004 17 360 6.4 12.9 0.00 0.00 0.00 80 1016.7
20260507064525 17 355 3.2 9.7 0.00 0.00 0.00 80 1016.4
20260507064004 17 355 3.2 11.3 0.00 0.00 0.00 80 1016.6
20260507063504 17 359 6.4 16.1 0.00 0.00 0.00 80 1016.8
20260507063004 17 358 8.0 17.7 0.00 0.00 0.00 80 1016.6
20260507062504 17 5 9.7 20.9 0.00 0.00 0.00 80 1016.4
20260507062004 17 15 9.7 20.9 0.00 0.00 0.00 80 1016.1
20260507061504 17 6 9.7 20.9 0.00 0.00 0.00 80 1015.4
20260507061004 17 358 9.7 20.9 0.00 0.00 0.00 80 1015.9
20260507060503 17 1 9.7 19.3 0.00 0.00 0.00 80 1016.3
20260507060004 17 357 8.0 17.7 0.00 0.00 0.00 80 1016.2
20260507055524 17 358 9.7 19.3 0.00 0.00 0.00 80 1016.2
20260507055004 17 3 11.3 19.3 0.00 0.00 0.00 80 1015.7
20260507054504 17 4 9.7 22.5 0.00 0.00 0.00 80 1016.1
20260507054004 17 356 9.7 22.5 0.00 0.00 0.00 81 1016.2
20260507053525 17 350 9.7 17.7 0.00 0.00 0.00 81 1016.3
20260507053004 17 355 9.7 17.7 0.00 0.00 0.00 81 1016.3
20260507052504 17 359 9.7 20.9 0.00 0.00 0.00 81 1016.1
20260507052004 17 353 8.0 20.9 0.00 0.00 0.00 81 1016.3
20260507051503 17 354 9.7 17.7 0.00 0.00 0.00 81 1016.2
20260507051004 17 2 9.7 17.7 0.00 0.00 0.00 81 1015.9
20260507050504 17 8 9.7 20.9 0.00 0.00 0.00 81 1015.9
20260507050005 17 8 9.7 20.9 0.00 0.00 0.00 81 1016.0
20260507045524 17 356 9.7 19.3 0.00 0.00 0.00 81 1016.0
20260507045004 17 350 9.7 19.3 0.00 0.00 0.00 81 1016.1
20260507044525 17 355 8.0 16.1 0.00 0.00 0.00 81 1016.1
20260507044004 17 350 8.0 16.1 0.00 0.00 0.00 81 1016.1
20260507043504 17 355 6.4 16.1 0.00 0.00 0.00 81 1015.9
20260507043004 17 356 8.0 19.3 0.00 0.00 0.00 81 1016.1
20260507042504 17 349 9.7 19.3 0.00 0.00 0.00 81 1016.1
20260507042004 17 345 9.7 19.3 0.00 0.00 0.00 81 1016.2
20260507041504 17 344 9.7 22.5 0.00 0.00 0.00 81 1016.1
20260507041004 17 347 9.7 22.5 0.00 0.00 0.00 81 1016.0
20260507040504 17 354 9.7 19.3 0.00 0.00 0.00 81 1015.7
20260507040004 17 352 11.3 22.5 0.00 0.00 0.00 81 1015.8
20260507035525 17 352 11.3 22.5 0.00 0.00 0.00 81 1015.7
20260507035003 17 355 11.3 20.9 0.00 0.00 0.00 81 1015.8
20260507034504 17 350 11.3 20.9 0.00 0.00 0.00 81 1016.1
20260507034004 17 345 11.3 20.9 0.00 0.00 0.00 81 1016.0
20260507033525 17 346 11.3 20.9 0.00 0.00 0.00 81 1015.6
20260507033025 17 348 11.3 22.5 0.00 0.00 0.00 81 1015.6
20260507032504 17 348 9.7 22.5 0.00 0.00 0.00 81 1015.7
20260507032024 17 351 11.3 27.4 0.00 0.00 0.00 81 1015.8
20260507031504 17 347 11.3 27.4 0.00 0.00 0.00 81 1015.6
20260507031004 17 339 9.7 25.7 0.00 0.00 0.00 81 1015.6
20260507030504 17 337 11.3 27.4 0.00 0.00 0.00 81 1015.7
20260507030003 17 329 9.7 27.4 0.00 0.00 0.00 81 1015.7
20260507025503 17 329 8.0 16.1 0.00 0.00 0.00 81 1015.5
20260507025025 17 341 8.0 16.1 0.00 0.00 0.00 81 1015.3
20260507024503 17 347 9.7 17.7 0.00 0.00 0.00 81 1015.2
20260507024025 17 340 9.7 20.9 0.00 0.00 0.00 81 1015.1
20260507023504 17 338 9.7 20.9 0.00 0.00 0.00 81 1015.2
20260507023004 17 345 8.0 16.1 0.00 0.00 0.00 81 1015.4
20260507022504 17 331 8.0 17.7 0.00 0.00 0.00 80 1015.3
20260507022003 17 321 8.0 17.7 0.00 0.00 0.00 80 1015.2
20260507021504 17 337 6.4 17.7 0.00 0.00 0.00 80 1015.1
20260507021025 17 350 8.0 17.7 0.00 0.00 0.00 80 1014.8
20260507020524 17 350 8.0 17.7 0.00 0.00 0.00 80 1014.4
20260507020004 17 337 8.0 17.7 0.00 0.00 0.00 80 1014.5
20260507015503 17 324 8.0 16.1 0.00 0.00 0.00 80 1014.6
20260507015004 17 327 8.0 16.1 0.00 0.00 0.00 80 1014.6
20260507014524 17 341 8.0 19.3 0.00 0.00 0.00 80 1014.6
20260507014003 17 344 9.7 27.4 0.00 0.00 0.00 80 1014.4
20260507013504 18 339 9.7 27.4 0.00 0.00 0.00 80 1014.2
20260507013003 18 333 9.7 22.5 0.00 0.00 0.00 80 1014.2
20260507012503 18 331 9.7 22.5 0.00 0.00 0.00 80 1014.0
20260507012004 18 333 8.0 22.5 0.00 0.00 0.00 79 1014.1
20260507011503 18 334 9.7 20.9 0.00 0.00 0.00 79 1014.0
20260507011003 18 335 9.7 20.9 0.00 0.00 0.00 79 1014.0
20260507010503 18 331 9.7 20.9 0.00 0.00 0.00 79 1013.9
20260507010004 18 334 11.3 22.5 0.00 0.00 0.00 79 1014.0
20260507005503 18 341 11.3 29.0 0.00 0.00 0.00 79 1013.6
20260507005004 18 336 11.3 29.0 0.00 0.00 0.00 78 1013.8
20260507004503 18 329 9.7 22.5 0.00 0.00 0.00 78 1013.5
20260507004025 18 331 9.7 20.9 0.00 0.00 0.00 78 1013.5
20260507003504 18 338 11.3 30.6 0.00 0.00 0.00 78 1013.4
20260507003003 18 343 12.9 30.6 0.00 0.00 0.00 78 1013.4
20260507002524 18 336 12.9 30.6 0.00 0.00 0.00 77 1013.4
20260507002003 18 333 12.9 29.0 0.00 0.00 0.00 77 1013.3
20260507001503 18 338 11.3 27.4 0.00 0.00 0.00 77 1013.5
20260507001003 18 341 11.3 27.4 0.00 0.00 0.00 77 1013.3
20260507000504 18 343 11.3 22.5 0.00 0.00 0.00 77 1013.1
20260507000003 18 338 9.7 22.5 0.00 0.00 0.00 77 1013.3
20260506235503 18 344 12.9 27.4 0.00 0.00 0.00 77 1013.2
20260506235003 18 345 11.3 27.4 0.00 0.00 0.00 76 1013.1
20260506234504 18 337 11.3 20.9 0.00 0.00 0.00 76 1013.1
20260506234003 18 339 12.9 25.7 0.00 0.00 0.00 76 1013.2
20260506233524 18 338 12.9 30.6 0.00 0.00 0.00 76 1013.1
20260506233025 18 336 12.9 30.6 0.00 0.00 0.00 76 1013.0
20260506232503 19 331 12.9 25.7 0.00 0.00 0.00 74 1013.0
20260506232003 19 335 11.3 27.4 0.00 0.00 0.00 74 1012.9
20260506231503 19 335 11.3 27.4 0.00 0.00 0.00 74 1012.8
20260506231004 19 327 9.7 25.7 0.00 0.00 0.00 74 1012.8